Location: *
(33.6842°N, 117.7925°W)
Time: 11:50:12
(UTC+00:00)

SL-16 R/B - Pass Details

Date: 21 October 2019
Orbit: 840 x 850 km, 71.0° (Epoch: 12 November)

Event Time Altitude Azimuth Distance (km) Brightness Sun altitude
Exits shadow 12:05:06 20° 193° (SSW) 1,823 3.8 -24.7°
Maximum altitude 12:09:02 79° 109° (ESE) 860 2.2 -23.9°
Drops below altitude 10° 12:14:42 10° 23° (NNE) 2,469 4.9 -22.7°
Sets 12:17:10 0° 23° (NNE) 3,409 5.7 -22.2°
